Location: Unspecified
(43.8044°N, 11.0278°E)
Time: 06:25:13
(UTC+02:00)

Okean 3 - Visible Passes

Search period start: 01 May 2017 00:00
Search period end: 11 May 2017 00:00
Orbit: 577 x 603 km, 82.5° (Epoch: 29 April)

Date Brightness Start Highest point End Pass type
(mag) Time Alt. Az. Time Alt. Az. Time Alt. Az.
01 May 5.7 00:24:34 19° WNW 00:24:34 19° WNW 00:27:25 10° NNW visible
01 May 3.9 22:55:52 47° ENE 22:55:52 47° ENE 22:59:17 10° NNE visible
02 May 6.0 00:32:24 13° WNW 00:32:49 13° WNW 00:34:54 10° NW visible
02 May 3.4 23:03:41 77° NE 23:03:41 77° NE 23:07:38 10° N visible
03 May 5.6 21:34:56 11° E 21:35:04 11° E 21:35:59 10° ENE visible
03 May 3.6 23:11:27 62° WSW 23:11:43 64° W 23:15:53 10° N visible
04 May 5.1 21:42:40 16° E 21:43:09 16° E 21:45:42 10° NE visible
04 May 4.4 23:19:12 37° WSW 23:20:02 42° WNW 23:24:02 10° N visible
05 May 4.7 21:50:21 21° ESE 21:51:16 23° E 21:54:37 10° NE visible
05 May 5.2 23:26:52 23° WSW 23:28:24 28° WNW 23:32:03 10° NNW visible
06 May 4.1 21:58:00 26° SE 21:59:26 34° E 22:03:14 10° NNE visible
06 May 5.8 23:34:30 13° WSW 23:36:48 20° WNW 23:39:55 10° NNW visible
07 May 3.6 22:05:35 26° SSE 22:07:38 52° E 22:11:43 10° NNE visible
07 May 6.2 23:43:03 10° W 23:45:14 14° WNW 23:47:28 10° NW visible
08 May 3.3 22:13:06 21° S 22:15:51 80° E 22:20:05 10° N visible
09 May 3.7 22:20:32 13° SSW 22:24:08 67° W 22:28:20 10° N visible
10 May 4.5 22:28:28 10° SSW 22:32:27 44° WNW 22:36:30 10° N visible
